This is the latest recevied weather packets stored in our database for station/object F4GQK-13. If no packets are shown the sender has not sent any weather packets the latest 1 day(s).
| Time | Temp. | Humidity | Pressure | Rain* | Wind** | Luminosity | Snow |
|---|---|---|---|---|---|---|---|
| 1778007005 | 12.22° C | 98% | 1007.7 hPa | 2.29 mm | 2.24 m/s, 13° | 5 W/m² | - |
| 1778006703 | 12.22° C | 98% | 1007.7 hPa | 2.03 mm | 1.79 m/s, 356° | 6 W/m² | - |
| 1778006403 | 12.22° C | 98% | 1007.4 hPa | 2.03 mm | 4.02 m/s, 8° | 8 W/m² | - |
| 1778006105 | 12.22° C | 98% | 1007.7 hPa | 2.29 mm | 3.13 m/s, 354° | 9 W/m² | - |
| 1778005805 | 12.22° C | 98% | 1007.5 hPa | 2.03 mm | 1.34 m/s, 354° | 9 W/m² | - |
| 1778005504 | 12.22° C | 98% | 1007.3 hPa | 1.78 mm | 2.68 m/s, 359° | 10 W/m² | - |
| 1778005205 | 12.78° C | 98% | 1007.5 hPa | 1.27 mm | 1.79 m/s, 3° | 12 W/m² | - |
| 1778004904 | 12.78° C | 98% | 1007.5 hPa | 1.02 mm | 1.79 m/s, 13° | 15 W/m² | - |
| 1778004605 | 12.78° C | 98% | 1007.4 hPa | 1.02 mm | 2.68 m/s, 309° | 18 W/m² | - |
| 1778004304 | 12.78° C | 98% | 1007.4 hPa | 0.76 mm | 1.79 m/s, 352° | 19 W/m² | - |
| 1778004005 | 12.78° C | 98% | 1007.6 hPa | 0.76 mm | 1.79 m/s, 357° | 15 W/m² | - |
| 1778003705 | 12.78° C | 98% | 1007.6 hPa | 0.76 mm | 1.79 m/s, 349° | 18 W/m² | - |
| 1778003405 | 12.78° C | 98% | 1007.8 hPa | 1.27 mm | 2.68 m/s, 352° | 26 W/m² | - |
| 1778003104 | 12.78° C | 98% | 1007.5 hPa | 1.52 mm | 2.68 m/s, 15° | 45 W/m² | - |
| 1778002803 | 12.78° C | 98% | 1007.5 hPa | 1.78 mm | 1.79 m/s, 3° | 45 W/m² | - |
| 1778002504 | 12.78° C | 98% | 1007.7 hPa | 2.29 mm | 1.79 m/s, 10° | 50 W/m² | - |
| 1778002205 | 12.78° C | 98% | 1007.4 hPa | 2.54 mm | 2.68 m/s, 349° | 66 W/m² | - |
| 1778001905 | 12.78° C | 98% | 1007.5 hPa | 2.79 mm | 2.68 m/s, 7° | 81 W/m² | - |
| 1778001604 | 12.78° C | 98% | 1007.5 hPa | 2.79 mm | 2.68 m/s, 19° | 90 W/m² | - |
| 1778001305 | 12.78° C | 98% | 1007.7 hPa | 3.05 mm | 1.34 m/s, 352° | 90 W/m² | - |
| 1778001004 | 12.78° C | 98% | 1007.5 hPa | 3.05 mm | 3.58 m/s, 357° | 93 W/m² | - |
| 1778000704 | 12.78° C | 98% | 1007.6 hPa | 3.05 mm | 0.89 m/s, 357° | 60 W/m² | - |
| 1778000405 | 12.78° C | 98% | 1007.6 hPa | 2.79 mm | 0.89 m/s, 358° | 63 W/m² | - |
| 1778000104 | 12.78° C | 98% | 1007.6 hPa | 2.29 mm | 2.24 m/s, 354° | 58 W/m² | - |
| 1777999805 | 12.78° C | 98% | 1007.5 hPa | 2.03 mm | 0.45 m/s, 344° | 57 W/m² | - |
* Rain latest hour (hover to see other rain measurements)
** Current wind speed in m/s (hover to see current wind gust speed)